[[[{"header":{"parameterUnit":"kt","parameterCategory":2,"dx":1,"dy":1,"la1":30.253999710083008,"la2":30.299108505249023,"lo1":-89.0895004272461,"lo2":-89.04439544677734,"nx":28,"ny":28,"refTime":"2022-10-09T21:00:00:Z","depth":0,"parameterNumber":1,"parameterNumberName":"U-component_of_WINDS"},"data":[-6.9428,-6.9638,-6.9609,-6.9835,-6.9847,-6.9997,-7.0041,-7.0095,-7.0131,-7.0307,-7.0402,-7.0394,-7.0418,-7.0525,-7.0628,-7.0622,-7.0669,-7.0766,-7.0743,-7.0335,-7.0277,-7.0222,-7.0171,-7.0776,-7.0776,-7.117,-7.1174,-7.1177,-6.9135,-6.9149,-6.926,-6.9347,-6.9442,-6.9331,-6.9391,-6.9478,-6.9615,-6.9659,-6.9751,-6.9903,-7.0019,-7.0009,-7.0116,-7.0215,-7.017,-7.0247,-7.0241,-7.0247,-6.9809,-6.9756,-7.0282,-7.0281,-7.0281,-7.0281,-7.0281,-7.0281,-6.8595,-6.8722,-6.8757,-6.8876,-6.8911,-6.8969,-6.9085,-6.9071,-6.9178,-6.9285,-6.9227,-6.9381,-6.942,-6.9532,-6.9562,-6.9682,-6.9592,-6.9667,-6.9687,-6.9708,-6.9737,-6.918,-6.9698,-6.9696,-6.9695,-6.9694,-6.9693,0,-6.8192,-6.8158,-6.8261,-6.8356,-6.844,-6.8511,-6.857,-6.864,-6.8556,-6.8649,-6.878,-6.885,-6.8989,-6.911,-6.9202,-6.9217,-6.9113,-6.9097,-6.915,-6.9184,-6.9203,-6.92,-6.8492,-6.9083,-6.9078,-6.9074,-6.9071,-6.9069,-6.7649,-6.7799,-6.7818,-6.7895,-6.7919,-6.8043,-6.8111,-6.8025,-6.8101,-6.8161,-6.8277,-6.8394,-6.8485,-6.87,-6.8681,-6.8786,-6.8737,-6.8967,-6.8752,-6.8778,-6.8746,-6.874,-6.8756,-6.9012,-6.9019,-6.9025,-6.903,0,-6.7347,-6.7295,-6.7516,-6.752,-6.7525,-6.7687,-6.769,-6.7812,-6.7783,-6.7948,-6.7981,-6.7937,-6.8067,-6.8009,-6.8145,-6.8112,-6.8382,-6.8329,-6.8369,-6.8357,-6.8561,-6.8544,-6.9222,-6.9308,-6.8675,-6.8681,-6.8686,0,-6.6866,-6.7065,-6.6975,-6.7106,-6.7325,-6.7232,-6.7451,-6.7447,-6.7476,-6.7605,-6.7474,-6.7598,-6.7504,-6.762,-6.7571,-6.778,-6.7804,-6.7792,-6.7778,-6.7807,-6.781,-6.785,-6.7823,-6.7733,-6.7729,-6.7726,-6.7723,0,-6.6402,-6.6585,-6.6796,-6.683,-6.6853,-6.6955,-6.6969,-6.7,-6.7067,-6.7144,-6.7187,-6.7283,-6.7337,-6.7415,-6.7351,-6.7208,-6.7603,-6.7393,-6.7592,-6.7595,-6.7686,-6.7683,-6.8293,-6.7719,-6.7718,-6.7717,-6.7716,0,-6.6006,-6.6084,-6.6397,-6.6413,-6.6465,-6.6604,-6.6692,-6.6797,-6.6839,-6.6816,-6.6876,-6.6783,-6.6957,-6.6753,-6.6994,-6.6826,-6.6887,-6.689,-6.6903,-6.692,-6.6695,-6.7053,-6.7635,-6.7697,-6.693,-6.6923,-6.6917,0,-6.5492,-6.5793,-6.5714,-6.6014,-6.6144,-6.5989,-6.6141,-6.6181,-6.6163,-6.6272,-6.625,-6.6375,-6.6211,-6.6242,-6.6368,-6.6353,-6.657,-6.632,-6.6485,-6.6492,-6.6483,-6.7017,-6.7121,-6.7513,-6.6832,-6.6841,-6.6848,0,-6.5087,-6.5111,-6.517,-6.5204,-6.524,-6.5348,-6.5523,-6.5625,-6.5702,-6.5759,-6.5906,-6.6076,-6.5961,-6.6013,-6.5947,-6.6082,-6.642,-6.5939,-6.5939,-6.6032,-6.6783,-6.6881,-6.6947,-6.6346,-6.6356,-6.6364,-6.678,0,-6.4509,-6.465,-6.4805,-6.4883,-6.4956,-6.5138,-6.5074,-6.5159,-6.5087,-6.5063,-6.5274,-6.5291,-6.5396,-6.5452,-6.5383,-6.5708,-6.5646,-6.552,-6.5321,-6.567,-6.5806,-6.5861,-6.5124,-6.5117,-6.5112,-6.5108,0,0,-6.4033,-6.4233,-6.414,-6.4305,-6.4361,-6.4196,-6.4397,-6.4432,-6.4509,-6.4553,-6.4439,-6.4686,-6.4704,-6.4969,-6.5072,-6.5113,-6.5167,-6.5046,-6.5503,-6.5548,-6.5589,-6.5735,-6.5793,-6.5098,-6.5096,-6.5095,-6.5093,0,-6.3809,-6.3828,-6.4026,-6.4058,-6.4101,-6.4064,-6.4112,-6.4127,-6.4121,-6.4324,-6.4187,-6.4306,-6.4504,-6.4543,-6.4589,-6.5011,-6.4903,-6.5047,-6.5298,-6.5452,-6.5504,-6.5549,-6.5704,-6.576,-6.508,-6.5081,-6.5081,0,-6.3402,-6.3411,-6.3499,-6.3616,-6.3643,-6.378,-6.3554,-6.3708,-6.3809,-6.3621,-6.3827,-6.3828,-6.3874,-6.4129,-6.4241,-6.4143,-6.4668,-6.4489,-6.452,-6.4533,-6.4679,-6.4741,-6.4796,-6.4072,-6.4068,-6.4065,0,0,-6.3217,-6.3346,-6.3329,-6.3562,-6.3589,-6.3537,-6.3602,-6.3537,-6.358,-6.3598,-6.3597,-6.3644,-6.3758,-6.3835,-6.3938,-6.4227,-6.4232,-6.4367,-6.4415,-6.4454,-6.4488,-6.4644,-6.4705,-6.4053,-6.4053,-6.4052,0,0,-6.3129,-6.3118,-6.3036,-6.3299,-6.3344,-6.3343,-6.349,-6.3391,-6.3477,-6.3449,-6.3347,-6.3355,-6.3592,-6.3598,-6.3441,-6.3867,-6.3671,-6.3707,-6.3855,-6.3914,-6.3961,-6.3956,-6.3214,0,0,0,0,0,-6.2866,-6.3118,-6.3045,-6.3079,-6.3226,-6.3384,-6.3402,-6.3323,-6.3185,-6.3303,-6.3287,-6.3164,-6.3493,-6.3352,-6.3388,-6.3565,-6.3895,-6.3923,-6.3949,-6.4208,-6.4271,-6.4324,0,0,0,0,0,0,-6.2879,-6.2921,-6.3038,-6.3049,-6.3081,-6.3374,-6.3125,-6.311,-6.3171,-6.3145,-6.3171,-6.3165,-6.3101,-6.3328,-6.3362,-6.3532,-6.3202,-6.3906,-6.393,-6.3951,-6.423,-6.4281,-6.4325,0,0,0,0,0,-6.2889,-6.2922,-6.3178,-6.3045,-6.3073,-6.3027,-6.3114,-6.31,-6.3146,-6.312,-6.3109,-6.308,-6.3108,-6.3131,-6.3347,-6.3518,-6.3178,-6.3191,-6.3921,-6.394,-6.3957,-6.4255,0,0,0,0,0,0,-6.2896,-6.2911,-6.3182,-6.3187,-6.2943,-6.3009,-6.3016,-6.3092,-6.3115,-6.3108,-6.3023,-6.3002,-6.3116,-6.3132,-6.3151,-6.3518,-6.3159,-6.3172,-6.318,-6.3936,-6.395,-6.3963,0,0,0,0,0,0,-6.2892,-6.2917,-6.3184,-6.306,-6.3051,-6.2993,-6.3,-6.3172,-6.3118,-6.3017,-6.3,-6.3014,-6.3088,-6.3135,-6.3148,-6.342,-6.3144,-6.3156,-6.3165,-6.3171,-6.3948,-6.3959,0,0,0,0,0,0,-6.2901,-6.2922,-6.3058,-6.3051,-6.3042,-6.3099,-6.3143,-6.3298,-6.301,-6.3018,-6.2982,-6.297,-6.3095,-6.3106,-6.3148,-6.3414,-6.3418,-6.3144,-6.3153,-6.3159,-6.3163,0,0,0,0,0,0,0,-6.2908,-6.2785,-6.3149,-6.3044,-6.3035,-6.3239,-6.3241,-6.3242,-6.3008,-6.2996,-6.2985,-6.2975,-6.3072,-6.3085,-6.3099,-6.341,0,0,-6.3143,-6.3149,0,0,0,0,0,0,0,0,-6.2774,-6.2782,-6.3149,-6.315,-6.3151,-6.3239,-6.324,-6.3242,-6.3006,-6.2997,-6.2988,-6.2979,-6.3075,-6.3087,-6.3098,0,0,0,0,0,0,0,0,0,0,0,0,0,0,0,-6.3149,-6.315,0,-6.3239,-6.324,-6.3241,-6.3004,-6.2997,-6.299,-6.2983,-6.3079,-6.3088,-6.3097,0,0,0,0,0,0,0,0,0,0,0,0,0,0,0,0,0,0,0,0,0,0,0,0,0,0,0,0,0,0,0,0,0,0,0,0,0,0,0,0,0,0,0,0,0,0,0,0,0,0,0,0,0,0,0,0,0,0,0,0,0,0,0,0,0,0,0,0,0]}],[{"header":{"parameterUnit":"kt","parameterCategory":2,"dx":1,"dy":1,"la1":30.253999710083008,"la2":30.299108505249023,"lo1":-89.0895004272461,"lo2":-89.04439544677734,"nx":28,"ny":28,"refTime":"2022-10-09T21:00:00:Z","depth":0,"parameterNumber":2,"parameterNumberName":"V-component_of_WINDS"},"data":[-7.7835,-7.7976,-7.7959,-7.8111,-7.8121,-7.8221,-7.825,-7.8286,-7.8309,-7.8424,-7.8486,-7.848,-7.8494,-7.8561,-7.8626,-7.8621,-7.865,-7.8713,-7.8696,-7.8432,-7.8395,-7.8358,-7.8325,-7.8719,-7.872,-7.8972,-7.8974,-7.8976,-7.7643,-7.7655,-7.7731,-7.7792,-7.7856,-7.7785,-7.7826,-7.7884,-7.7974,-7.8004,-7.8064,-7.8162,-7.8236,-7.8227,-7.8295,-7.8357,-7.8326,-7.8377,-7.8372,-7.8375,-7.8092,-7.8057,-7.84,-7.84,-7.84,-7.84,-7.84,-7.84,-7.7288,-7.7374,-7.7401,-7.7483,-7.7508,-7.7549,-7.7626,-7.7618,-7.7689,-7.776,-7.7722,-7.7823,-7.7846,-7.7917,-7.7935,-7.8011,-7.7951,-7.7999,-7.8012,-7.8025,-7.8043,-7.7682,-7.8021,-7.802,-7.8019,-7.8018,-7.8017,0,-7.7024,-7.7004,-7.7075,-7.7142,-7.7199,-7.7248,-7.7289,-7.7336,-7.7283,-7.7344,-7.743,-7.7476,-7.7566,-7.7643,-7.7701,-7.7709,-7.7638,-7.7629,-7.7662,-7.7683,-7.7694,-7.769,-7.723,-7.7619,-7.7615,-7.7613,-7.7611,-7.761,-7.6665,-7.6767,-7.6786,-7.6838,-7.6857,-7.6941,-7.6987,-7.6933,-7.6984,-7.7024,-7.7101,-7.7178,-7.7237,-7.7375,-7.7361,-7.7427,-7.7393,-7.7544,-7.7402,-7.7418,-7.7395,-7.739,-7.74,-7.7572,-7.7577,-7.7581,-7.7584,0,-7.6465,-7.6435,-7.6586,-7.6594,-7.6599,-7.6707,-7.6712,-7.6794,-7.6776,-7.6885,-7.6907,-7.6878,-7.6962,-7.6923,-7.701,-7.6987,-7.7161,-7.7126,-7.7153,-7.7144,-7.7275,-7.7263,-7.7707,-7.7762,-7.7352,-7.7356,-7.7359,0,-7.6147,-7.6282,-7.623,-7.6319,-7.6466,-7.6408,-7.6555,-7.6554,-7.6574,-7.6659,-7.6574,-7.6655,-7.6592,-7.6667,-7.6633,-7.6768,-7.6784,-7.6774,-7.6764,-7.6783,-7.6784,-7.6808,-7.6789,-7.6735,-7.6733,-7.6731,-7.6729,0,-7.5838,-7.5967,-7.6112,-7.6136,-7.6157,-7.6226,-7.6237,-7.6259,-7.6304,-7.6355,-7.6384,-7.6448,-7.6483,-7.6532,-7.6488,-7.6394,-7.6652,-7.6513,-7.6642,-7.6643,-7.6702,-7.6699,-7.7101,-7.6727,-7.6726,-7.6725,-7.6724,0,-7.5576,-7.5633,-7.5847,-7.5862,-7.5898,-7.5993,-7.6053,-7.6125,-7.6154,-7.6139,-7.6178,-7.6116,-7.6231,-7.6096,-7.6253,-7.6143,-7.6182,-7.6182,-7.6191,-7.6199,-7.6049,-7.6282,-7.6669,-7.6708,-7.6206,-7.6202,-7.6198,0,-7.523,-7.5438,-7.539,-7.5594,-7.5685,-7.5584,-7.5687,-7.5715,-7.5704,-7.5777,-7.5762,-7.5846,-7.5737,-7.5758,-7.5841,-7.5829,-7.5972,-7.5808,-7.5912,-7.5916,-7.5909,-7.6264,-7.6332,-7.6588,-7.6142,-7.6148,-7.6152,0,-7.4957,-7.4983,-7.5023,-7.5048,-7.5078,-7.5153,-7.5272,-7.5343,-7.5394,-7.5435,-7.5533,-7.5648,-7.5571,-7.5605,-7.5561,-7.565,-7.5873,-7.5554,-7.5553,-7.5613,-7.611,-7.6174,-7.6218,-7.5824,-7.583,-7.5836,-7.6108,0,-7.4569,-7.4669,-7.4776,-7.4835,-7.4887,-7.5012,-7.4973,-7.5031,-7.4984,-7.4969,-7.5111,-7.5123,-7.5193,-7.5231,-7.5186,-7.5401,-7.5359,-7.5275,-7.514,-7.5374,-7.5462,-7.5498,-7.5012,-7.5008,-7.5004,-7.5001,0,0,-7.4245,-7.4388,-7.4331,-7.4446,-7.4486,-7.4379,-7.4516,-7.4542,-7.4598,-7.4627,-7.4552,-7.4718,-7.4731,-7.4907,-7.4976,-7.5005,-7.5039,-7.4959,-7.5263,-7.5292,-7.5319,-7.5415,-7.5453,-7.4995,-7.4993,-7.4992,-7.4991,0,-7.4095,-7.4115,-7.4253,-7.4278,-7.4313,-7.4291,-7.4324,-7.4339,-7.4335,-7.4474,-7.4382,-7.4462,-7.4596,-7.4622,-7.4652,-7.4937,-7.4862,-7.4961,-7.5128,-7.5229,-7.5263,-7.5293,-7.5394,-7.5431,-7.4982,-7.4983,-7.4983,0,-7.382,-7.3832,-7.3895,-7.3983,-7.4004,-7.4099,-7.3949,-7.4056,-7.4126,-7.4,-7.414,-7.4141,-7.4172,-7.4344,-7.4419,-7.4353,-7.4703,-7.4585,-7.4606,-7.4614,-7.4709,-7.475,-7.4787,-7.4305,-7.4303,-7.4301,0,0,-7.3696,-7.3789,-7.3784,-7.3947,-7.3967,-7.3936,-7.3982,-7.394,-7.3972,-7.3985,-7.3985,-7.4017,-7.4093,-7.4146,-7.4215,-7.441,-7.4411,-7.4503,-7.4535,-7.4562,-7.4584,-7.4686,-7.4726,-7.4292,-7.4292,-7.4292,0,0,-7.3636,-7.3638,-7.3585,-7.377,-7.3804,-7.3809,-7.3909,-7.3844,-7.3904,-7.3884,-7.3816,-7.3822,-7.3981,-7.3986,-7.3881,-7.4166,-7.4034,-7.4059,-7.4158,-7.4198,-7.4229,-7.4225,-7.3727,0,0,0,0,0,-7.3463,-7.3637,-7.359,-7.3615,-7.3724,-7.3836,-7.3849,-7.3798,-7.3706,-7.3786,-7.3775,-7.3692,-7.3915,-7.382,-7.3845,-7.3963,-7.4186,-7.4205,-7.4223,-7.4397,-7.4439,-7.4474,0,0,0,0,0,0,-7.3472,-7.3503,-7.3585,-7.3598,-7.3622,-7.3829,-7.3661,-7.3652,-7.3696,-7.3678,-7.3697,-7.3693,-7.365,-7.3804,-7.3827,-7.394,-7.3719,-7.4194,-7.421,-7.4224,-7.4411,-7.4445,-7.4475,0,0,0,0,0,-7.3479,-7.3504,-7.3693,-7.3595,-7.3616,-7.359,-7.3654,-7.3645,-7.3678,-7.3662,-7.3655,-7.3636,-7.3655,-7.367,-7.3817,-7.3931,-7.3703,-7.3711,-7.4204,-7.4217,-7.4228,-7.4428,0,0,0,0,0,0,-7.3484,-7.3496,-7.3696,-7.3701,-7.3526,-7.3577,-7.3584,-7.364,-7.3657,-7.3653,-7.3596,-7.3582,-7.366,-7.3671,-7.3684,-7.3931,-7.3689,-7.3698,-7.3704,-7.4214,-7.4223,-7.4232,0,0,0,0,0,0,-7.3482,-7.35,-7.3698,-7.3614,-7.3608,-7.3566,-7.3572,-7.3689,-7.3659,-7.359,-7.3579,-7.3589,-7.364,-7.3673,-7.3682,-7.3866,-7.3679,-7.3688,-7.3694,-7.3697,-7.4222,-7.4229,0,0,0,0,0,0,-7.3488,-7.3504,-7.3612,-7.3608,-7.3602,-7.3647,-7.3668,-7.3782,-7.3589,-7.3591,-7.357,-7.3561,-7.3644,-7.3652,-7.3682,-7.3863,-7.3865,-7.3679,-7.3685,-7.3689,-7.3692,0,0,0,0,0,0,0,-7.3494,-7.3402,-7.3671,-7.3603,-7.3597,-7.3741,-7.3742,-7.3743,-7.3587,-7.3579,-7.3572,-7.3565,-7.363,-7.364,-7.3649,-7.386,0,0,-7.3678,-7.3683,0,0,0,0,0,0,0,0,-7.3394,-7.34,-7.3671,-7.3672,-7.3673,-7.3741,-7.3742,-7.3743,-7.3586,-7.3579,-7.3573,-7.3568,-7.3633,-7.364,-7.3648,0,0,0,0,0,0,0,0,0,0,0,0,0,0,0,-7.3671,-7.3672,0,-7.3741,-7.3742,-7.3743,-7.3585,-7.358,-7.3575,-7.357,-7.3635,-7.3641,-7.3647,0,0,0,0,0,0,0,0,0,0,0,0,0,0,0,0,0,0,0,0,0,0,0,0,0,0,0,0,0,0,0,0,0,0,0,0,0,0,0,0,0,0,0,0,0,0,0,0,0,0,0,0,0,0,0,0,0,0,0,0,0,0,0,0,0,0,0,0,0]}]]]